Bookmark and Share
Track history (hours):
 

Shoukeimaruno.3

Last reported at 2014-Apr-16 21:22 UTC. Time now 2014-Apr-17 00:59 UTC.
Position N 35°58' E 141°01'.

Length 77 m; draft 4.2 m.

Type: Cargo ship. MMSI: 431300325.

NotesDate/timePositionNaut miles runAvg speedWind from/ knotsBaromVisibWave heightAir tempDewpointWater temp
2014-Apr-16 21:22N 35°58' E 141°01'810.2
2014-Apr-16 20:34N 35°50' E 141°00'1110.2
2014-Apr-16 19:27N 35°39' E 140°59'1110.8
2014-Apr-16 18:28N 35°31' E 140°50'2311.8
2014-Apr-16 16:32N 35°13' E 140°33'1712.5
2014-Apr-16 15:11N 35°02' E 140°18'711.8
2014-Apr-16 14:33N 34°58' E 140°09'1211.5
2014-Apr-16 13:33N 34°53' E 139°57'10 9.9
2014-Apr-16 12:33N 34°56' E 139°46'1110.5
2014-Apr-16 11:34N 35°06' E 139°45'1111.1
2014-Apr-16 10:34N 35°17' E 139°45'9 9.5
2014-Apr-16 09:34N 35°27' E 139°46'1110.8
2014-Apr-16 08:34N 35°32' E 139°58'7 7.3
2014-Apr-16 07:33N 35°36' E 140°05'0 0.0
2014-Apr-16 06:31N 35°36' E 140°05'0 0.1
2014-Apr-16 05:33N 35°36' E 140°05'0 0.0
2014-Apr-16 04:33N 35°36' E 140°05'0 0.0
2014-Apr-16 03:33N 35°36' E 140°05'0 0.0
2014-Apr-16 02:34N 35°36' E 140°05'0 0.0
2014-Apr-16 01:33N 35°36' E 140°05'0 0.0
2014-Apr-16 00:33N 35°36' E 140°05'7 6.7
2014-Apr-15 23:33N 35°32' E 139°59'1211.7
2014-Apr-15 22:33N 35°25' E 139°47'1010.0
2014-Apr-15 21:33N 35°15' E 139°47'1111.5
2014-Apr-15 20:34N 35°04' E 139°45'1111.1
2014-Apr-15 19:33N 34°53' E 139°48'1210.3
2014-Apr-15 18:23N 34°55' E 140°02'910.6
2014-Apr-15 17:33N 34°59' E 140°12'22 9.8
2014-Apr-15 15:17N 35°15' E 140°30'40 5.9
2014-Apr-15 08:31N 35°53' E 140°41'0 0.3
2014-Apr-15 06:34N 35°53' E 140°41'0 0.0
2014-Apr-15 03:34N 35°53' E 140°41'64 8.0
2014-Apr-14 19:34N 34°56' E 140°05'17 8.7
2014-Apr-14 17:34N 34°57' E 139°44'1010.1
2014-Apr-14 16:34N 35°07' E 139°45'1010.5
2014-Apr-14 15:34N 35°18' E 139°44'8 8.0
2014-Apr-14 14:34N 35°24' E 139°37'0 0.0
2014-Apr-14 13:34N 35°24' E 139°37'0 0.0
2014-Apr-14 11:34N 35°24' E 139°37'0 0.0
2014-Apr-14 10:34N 35°24' E 139°37'0 0.0
2014-Apr-14 09:34N 35°24' E 139°37'0 0.0
2014-Apr-14 08:34N 35°24' E 139°37'3 2.9
2014-Apr-14 07:34N 35°23' E 139°41'1211.9
2014-Apr-14 06:34N 35°30' E 139°53'5 4.8
2014-Apr-14 05:33N 35°27' E 139°58'0 0.0
2014-Apr-13 22:34N 35°27' E 139°58'2 1.8
2014-Apr-13 21:33N 35°29' E 139°57'0 0.0
2014-Apr-13 20:34N 35°29' E 139°57'0 0.0
2014-Apr-13 19:34N 35°29' E 139°57'0 0.0
2014-Apr-13 18:34N 35°29' E 139°57'0 0.0
2014-Apr-13 17:34N 35°29' E 139°57'0 0.0
2014-Apr-13 16:33N 35°29' E 139°57'0 0.0
2014-Apr-13 15:33N 35°29' E 139°57'0 0.0
2014-Apr-13 14:33N 35°29' E 139°57'0 0.0
2014-Apr-13 13:33N 35°29' E 139°57'0 0.0
2014-Apr-13 12:33N 35°29' E 139°57'0 0.0
2014-Apr-13 11:33N 35°29' E 139°57'0 0.0
2014-Apr-13 10:33N 35°29' E 139°57'0 0.0
2014-Apr-13 09:32N 35°29' E 139°57'0 0.0
2014-Apr-13 08:33N 35°29' E 139°57'0 0.0
2014-Apr-13 07:34N 35°29' E 139°57'0 0.0
2014-Apr-13 06:33N 35°29' E 139°57'0 0.1
2014-Apr-13 05:34N 35°29' E 139°57'0 0.0
2014-Apr-13 04:33N 35°29' E 139°57'5 5.5
2014-Apr-13 03:33N 35°27' E 139°50'1010.2
2014-Apr-13 02:34N 35°18' E 139°45'1010.2
2014-Apr-13 01:33N 35°08' E 139°47'1010.2
2014-Apr-13 00:33N 34°58' E 139°44'18 8.7
2014-Apr-12 22:31N 34°56' E 140°06'43 9.7
2014-Apr-12 18:06N 35°24' E 140°45'6 8.8
2014-Apr-12 17:24N 35°29' E 140°49'  
2014-Apr-09 23:16N 35°50' E 140°60'1311.4
2014-Apr-09 22:09N 35°37' E 140°58'1012.8
2014-Apr-09 21:24N 35°30' E 140°50'4012.5
2014-Apr-09 18:11N 35°00' E 140°17'912.1
2014-Apr-09 17:29N 34°56' E 140°08'1512.1
2014-Apr-09 16:14N 34°49' E 139°52'811.6
2014-Apr-09 15:33N 34°46' E 139°43'13 0.6
2014-Apr-08 15:30N 34°52' E 139°57'1510.6
2014-Apr-08 14:06N 34°60' E 140°13'20 9.7
2014-Apr-08 12:04N 35°13' E 140°30'910.9
2014-Apr-08 11:16N 35°20' E 140°37'811.0
2014-Apr-08 10:32N 35°26' E 140°43'1211.1
2014-Apr-08 09:26N 35°37' E 140°51'21 9.9
2014-Apr-08 07:15N 35°57' E 140°44'5 6.3
2014-Apr-08 06:30N 35°53' E 140°41'0 0.1
2014-Apr-08 05:33N 35°53' E 140°41'0 0.0
2014-Apr-08 04:32N 35°53' E 140°41'0 0.0
2014-Apr-08 03:32N 35°53' E 140°41'0 0.0
2014-Apr-08 01:33N 35°53' E 140°41'0 0.0
2014-Apr-08 00:33N 35°53' E 140°41'0 0.0
2014-Apr-07 23:34N 35°53' E 140°41'0 0.0
2014-Apr-07 22:30N 35°53' E 140°41'0 0.0
2014-Apr-07 21:33N 35°53' E 140°41'0 0.0
2014-Apr-07 20:33N 35°53' E 140°41'0 0.0
2014-Apr-07 19:33N 35°53' E 140°41'0 0.0
2014-Apr-07 17:34N 35°53' E 140°41'0 0.0
2014-Apr-07 16:33N 35°53' E 140°41'0 0.0
2014-Apr-07 15:33N 35°53' E 140°41'0 0.0
2014-Apr-07 14:29N 35°53' E 140°41'0 0.0
2014-Apr-07 13:34N 35°53' E 140°41'0 0.0
2014-Apr-07 12:33N 35°53' E 140°41'0 0.0
2014-Apr-07 11:31N 35°53' E 140°41'0 0.0
2014-Apr-07 10:34N 35°53' E 140°41'0 0.0
2014-Apr-07 09:34N 35°53' E 140°41'0 0.0
2014-Apr-07 08:33N 35°53' E 140°41'0 0.0
2014-Apr-07 07:34N 35°53' E 140°41'  

Dump ship's entire track history

sailing weather and tide predictions

Shoukeimaruno.3 — JI3587 — position and weather